Wind_Speed
15 15 17 19 20 20 22 23 22 22 23 24 24 25 25 25 25 25 25 24 23 22 20 19 18 18 17 16 16 16 15 15 15 14 14 13 14 14 14 15 14 14 13 12 12 13 13 13 13 14 14 14 14 14 14 15 16 16 16 17 17 17 17 17 17 17 17 16 16 16 17 17 17 17 17 17 18 18 18 18 18 20 19 20 21
18 19 18 19 20 20 21 21 22 22 23 24 24 24 24 24 25 25 24 23 21 20 18 18 18 18 17 17 16 16 15 15 14 14 13 13 13 13 14 14 13 13 12 12 12 13 13 13 14 14 14 14 14 15 15 16 16 16 16 17 17 17 17 17 17 17 17 17 17 17 17 18 18 18 18 18 19 18 19 19 19 20 19 19 21
21 21 20 20 20 19 20 21 22 22 22 23 23 23 23 24 25 25 23 21 20 18 17 17 16 16 16 16 16 15 15 14 14 13 13 13 12 12 12 12 12 12 12 12 13 13 14 14 14 14 14 14 14 15 15 17 17 16 17 17 17 18 18 17 16 16 17 17 18 18 19 19 19 19 19 19 19 19 19 19 19 20 19 20 20
23 23 22 21 20 19 20 21 21 22 22 22 23 22 22 23 24 23 21 20 18 17 16 16 15 16 16 16 15 15 14 14 13 13 13 12 12 12 12 12 12 12 13 13 14 15 15 15 15 14 13 13 14 15 15 16 16 16 16 17 17 17 17 17 15 15 16 17 20 20 20 19 19 19 19 20 20 19 19 19 19 20 20 20 20
25 23 22 21 20 20 20 21 21 21 22 21 21 21 22 23 23 22 20 19 18 17 16 15 15 15 16 16 15 15 14 13 12 13 12 12 11 12 12 12 13 13 13 14 14 15 15 15 15 14 14 14 14 14 15 16 16 15 15 15 16 16 16 17 16 16 17 19 21 21 20 19 19 18 19 20 20 20 19 19 19 20 20 20 20
25 23 23 22 20 21 20 21 21 21 21 20 20 21 23 23 22 20 19 18 17 16 15 15 15 16 16 16 16 15 14 13 12 12 12 11 12 13 13 14 14 14 14 14 15 15 15 15 15 14 15 15 15 14 14 15 16 16 15 15 15 15 17 17 16 17 18 20 21 21 20 19 19 18 18 19 19 19 18 17 18 19 20 20 19
25 25 23 22 22 21 20 21 20 20 20 19 20 21 22 21 20 19 18 17 16 15 15 16 16 16 16 15 15 15 14 13 13 13 13 13 13 15 15 14 14 14 14 14 15 15 15 14 14 14 15 15 14 14 14 15 15 16 16 15 15 15 16 17 16 17 19 20 21 20 20 19 18 17 17 17 18 18 17 17 17 18 18 18 19
26 26 23 23 22 21 21 20 20 20 19 18 20 20 20 19 19 18 17 16 15 15 16 17 17 16 16 15 15 14 13 13 13 13 14 14 15 15 15 14 14 15 14 14 15 16 16 15 14 14 14 14 14 14 14 15 16 16 16 15 15 14 15 16 16 18 19 20 20 20 20 19 18 18 17 17 17 17 17 16 17 17 17 18 19
27 25 24 24 23 22 21 20 20 20 19 18 19 19 19 19 18 17 16 15 15 16 17 17 17 16 16 16 15 14 13 13 14 14 14 15 16 16 15 15 15 15 15 14 15 15 16 15 15 14 14 14 14 14 14 15 16 16 16 15 15 15 16 16 16 18 18 19 20 20 19 18 18 18 17 17 16 16 16 16 16 17 17 18 19
27 25 25 24 23 22 20 21 20 19 19 19 19 19 19 18 17 16 15 15 15 17 17 16 17 16 16 16 15 14 13 13 14 14 14 16 16 16 16 15 14 15 15 14 14 15 15 15 14 14 14 13 13 13 14 14 15 16 16 16 16 15 16 16 18 19 18 19 20 19 18 18 18 17 16 16 16 16 16 16 16 17 17 18 18
26 26 25 25 24 21 20 20 19 19 19 19 19 18 18 18 17 16 14 14 15 16 16 16 16 17 16 16 15 14 13 13 14 14 14 15 16 15 15 15 14 14 14 14 14 15 14 14 14 14 13 13 12 13 14 14 14 15 15 16 15 15 15 16 18 19 19 19 19 18 18 18 18 17 17 16 16 16 16 16 16 17 17 17 17
27 27 26 25 23 21 20 19 19 19 19 18 17 17 17 17 16 15 14 13 14 14 15 15 16 17 16 15 14 14 13 13 14 14 14 15 16 15 15 15 14 14 14 14 14 15 14 14 14 14 13 13 13 13 14 14 13 14 14 15 14 14 16 17 18 18 18 19 19 18 19 19 18 17 17 17 16 16 16 16 17 17 17 17 17
28 27 26 25 23 22 20 19 19 18 18 17 16 16 17 17 16 15 14 13 14 14 15 15 16 16 15 15 14 14 13 13 13 14 15 15 15 15 15 14 14 14 14 13 14 14 14 14 14 14 13 14 14 15 14 14 14 13 14 14 14 15 16 16 16 17 18 19 19 19 19 19 18 17 17 16 16 16 17 17 16 16 16 16 16
30 29 27 25 24 22 20 19 19 17 17 16 16 16 16 16 15 15 14 14 15 14 14 15 15 15 14 15 15 14 13 13 13 14 14 15 15 14 14 14 13 14 13 13 14 14 13 14 14 14 13 14 15 15 15 14 15 14 15 15 15 15 15 15 15 16 18 19 19 19 19 19 17 16 16 16 16 16 16 16 16 16 16 15 14
31 30 28 26 23 21 19 19 18 17 16 16 15 15 15 15 15 15 15 15 15 15 14 15 16 15 15 15 15 15 14 13 13 13 14 14 14 14 14 13 13 13 13 13 13 13 13 13 14 14 14 14 14 15 15 15 16 15 15 15 15 15 14 15 15 16 17 18 18 19 19 18 17 16 16 16 16 16 16 16 15 15 15 14 13
31 30 28 26 23 21 19 18 17 17 16 15 15 15 16 16 16 16 15 15 14 14 14 15 16 15 15 15 16 16 15 14 14 14 14 14 14 13 13 13 14 13 13 13 13 13 13 13 14 14 14 14 14 14 14 15 15 15 15 15 15 14 14 14 15 15 16 17 18 18 18 17 16 16 15 16 15 15 15 15 14 14 14 13 12
29 29 28 25 23 21 19 18 18 17 16 15 15 16 16 16 17 16 16 15 14 14 14 16 16 16 16 16 16 16 15 14 14 14 13 13 13 13 12 13 13 13 13 13 13 13 13 14 14 13 13 14 14 14 14 15 15 15 15 15 14 14 14 15 15 15 15 17 17 17 17 17 16 15 15 15 14 14 14 14 14 13 13 12 12
28 27 27 25 23 22 20 19 18 18 17 16 16 16 16 17 16 16 16 15 14 15 16 17 16 16 15 15 16 15 15 15 14 14 13 13 13 12 12 12 13 13 13 13 14 14 14 14 13 13 13 14 14 14 14 15 15 15 15 14 13 13 14 14 15 15 15 16 16 16 17 16 16 15 14 14 13 13 13 13 13 12 12 11 11
26 26 26 25 24 22 21 20 20 19 18 17 17 17 16 16 15 15 15 15 16 17 17 17 16 16 15 15 15 15 16 15 14 14 13 14 13 12 11 12 12 13 13 13 14 14 14 13 13 13 13 14 14 14 14 14 13 14 14 13 13 12 13 14 14 14 14 14 14 15 16 16 15 14 14 13 12 12 12 12 12 11 10 10 9
25 25 24 24 23 23 22 21 21 20 19 18 18 17 16 15 14 15 16 16 17 17 17 16 15 15 15 14 14 15 15 15 15 14 13 14 13 12 11 11 12 14 14 13 13 13 13 13 13 13 13 14 14 14 13 13 11 12 13 13 12 12 12 13 13 13 13 13 13 14 15 15 14 14 13 12 12 11 11 11 10 10 9 9 8
23 24 23 24 24 23 23 23 22 21 20 19 18 17 16 15 15 15 16 16 16 16 15 15 14 14 14 14 15 15 14 15 14 13 13 13 13 12 11 12 13 14 14 14 13 13 14 14 14 14 14 13 13 13 12 12 11 12 12 13 13 12 12 13 13 13 13 13 13 13 14 13 13 13 12 12 12 11 10 10 9 9 8 8 7
23 22 22 24 25 25 24 23 22 21 21 20 18 16 16 16 16 16 15 15 15 15 15 15 15 14 14 14 15 15 15 15 14 13 13 13 13 12 12 12 13 14 14 14 14 13 14 15 15 15 14 12 12 12 12 12 11 11 12 13 13 12 12 12 12 13 13 13 13 13 12 12 11 11 11 11 11 10 9 9 8 8 8 7 7
23 22 22 24 25 26 24 23 23 22 21 20 19 17 17 17 17 16 15 15 16 16 16 16 16 15 15 15 16 15 15 15 14 14 13 13 12 11 12 13 13 14 14 15 14 15 15 15 15 15 13 11 11 11 11 11 12 11 13 13 12 11 12 11 12 13 13 13 13 13 12 12 11 10 10 10 9 9 9 8 8 7 7 7 7
23 23 24 24 25 25 24 23 23 22 22 21 20 18 18 18 17 17 16 16 16 17 17 16 16 16 15 15 15 15 14 14 14 13 13 13 12 11 12 13 14 15 16 16 16 16 16 15 15 14 13 11 10 10 10 9 11 13 13 12 10 9 10 10 11 12 13 13 13 13 12 12 11 10 9 9 8 8 8 7 7 7 7 7 6
24 23 24 25 25 25 24 23 22 22 22 21 21 20 19 19 19 18 17 17 17 17 17 16 16 15 15 14 14 14 14 14 14 14 14 13 13 12 13 14 15 15 16 17 17 17 16 16 14 13 12 11 9 8 8 8 10 13 13 12 9 7 8 8 10 12 13 12 12 12 12 12 11 10 9 8 8 8 8 7 7 7 6 6 6
25 25 25 25 26 25 24 23 22 22 22 22 21 21 21 20 20 19 19 18 17 17 16 16 15 15 15 14 13 14 14 14 13 14 14 13 13 13 13 14 15 15 15 14 14 14 13 12 12 11 11 10 8 6 6 8 10 12 14 12 9 7 6 7 9 11 12 12 12 12 12 11 10 9 9 9 8 8 8 7 7 6 6 6 6
26 26 26 26 26 25 24 23 23 23 22 21 21 21 21 21 20 20 20 18 17 17 17 16 15 15 15 14 14 15 15 14 14 14 13 13 13 13 13 13 14 14 13 11 11 11 10 10 9 9 8 8 7 6 6 7 10 12 14 13 10 8 7 7 9 10 11 11 11 11 10 10 9 8 8 8 8 8 8 7 7 6 6 6 6
26 26 27 26 26 26 25 24 24 24 23 22 22 22 21 21 20 20 19 19 18 17 17 16 16 16 15 14 14 15 15 14 15 14 13 13 13 13 13 13 13 12 11 10 9 8 8 8 7 6 6 7 7 7 7 7 10 13 15 15 12 9 8 9 11 11 10 11 11 10 9 9 8 8 8 8 8 8 8 7 7 7 6 6 6
27 27 27 26 27 27 26 26 24 24 23 22 22 22 21 21 20 20 19 19 18 17 16 16 17 16 15 14 13 14 14 14 14 13 12 12 12 12 13 12 11 10 9 8 7 6 5 5 4 4 5 6 7 8 8 8 10 14 16 16 12 10 9 10 11 11 10 10 10 9 9 9 9 8 8 7 7 7 7 7 7 7 6 6 6
28 28 28 27 27 27 26 26 24 24 24 23 22 22 21 21 20 19 19 18 17 17 17 17 18 17 15 13 13 13 13 13 13 12 12 11 11 10 10 10 9 8 7 7 6 5 5 4 3 3 5 6 7 8 9 10 12 14 16 15 12 10 9 10 10 10 9 9 9 9 9 8 9 8 8 7 7 7 6 6 6 6 6 5 5
28 28 29 27 27 28 27 26 24 24 25 24 23 22 21 21 20 19 18 18 17 17 17 18 18 17 15 14 13 13 13 13 13 12 12 11 11 10 9 9 8 8 7 6 6 5 5 4 4 4 5 7 8 10 11 12 13 14 15 15 12 10 9 9 9 8 8 8 8 8 8 8 8 7 7 7 6 6 5 5 5 5 5 5 5
29 29 29 28 27 29 27 26 25 24 25 24 23 22 21 19 18 19 18 18 17 17 17 19 19 16 15 15 13 13 12 13 13 13 12 12 11 10 10 9 9 9 9 8 7 6 5 4 4 4 5 5 7 10 12 12 13 14 14 14 13 10 9 8 8 8 7 7 7 8 8 8 7 7 7 6 6 6 5 5 4 4 4 4 4
29 29 29 28 28 29 27 26 26 25 25 25 24 23 20 19 18 19 19 19 18 18 18 20 19 17 15 15 14 14 13 14 14 14 13 12 12 11 10 10 10 10 10 9 8 7 6 5 5 5 6 6 6 7 11 14 13 13 13 13 13 11 9 9 8 8 7 7 8 8 7 8 8 7 7 7 6 6 6 5 5 5 5 5 5
29 29 30 29 28 28 27 27 28 26 25 25 25 23 20 19 19 19 19 19 19 18 19 19 18 17 16 16 15 14 14 15 15 15 13 12 12 11 11 10 10 10 9 9 9 8 7 7 7 6 7 6 5 6 8 15 14 13 13 12 12 11 9 9 8 7 7 7 7 7 7 7 8 7 7 7 7 7 7 6 6 6 7 7 7
30 31 31 30 28 27 28 29 28 27 27 26 25 23 21 20 20 21 20 19 20 19 18 18 17 16 16 17 16 15 15 15 15 14 13 12 11 12 11 10 10 10 9 9 10 9 9 9 8 7 6 5 5 5 6 16 17 14 14 11 11 10 9 8 8 7 6 6 6 6 7 6 7 6 6 6 7 7 8 8 8 8 8 8 8
32 32 32 31 28 27 29 29 29 29 27 25 25 24 23 22 22 22 21 20 21 20 19 18 17 16 16 17 17 16 16 15 14 14 13 13 12 12 11 10 10 9 9 9 10 10 9 10 9 7 6 5 6 5 7 14 18 15 12 11 10 9 9 9 8 7 6 6 5 5 6 6 6 6 5 6 6 7 8 8 8 9 8 8 8
34 33 33 32 29 28 29 29 31 30 26 25 25 25 24 23 22 22 21 21 21 21 20 18 17 17 17 18 18 17 16 15 14 14 13 12 12 12 11 9 9 8 8 10 11 10 9 9 9 8 7 6 6 5 7 9 14 15 12 11 11 10 9 9 9 8 8 7 6 4 5 6 6 6 6 5 5 6 8 9 9 9 9 9 8
36 34 34 33 31 30 29 29 32 29 26 26 26 25 23 22 22 20 20 20 20 21 21 19 18 18 17 18 19 17 16 15 14 14 13 12 12 12 11 9 9 9 9 11 11 11 10 9 9 9 7 6 5 5 5 6 9 13 12 10 10 10 9 9 10 9 9 9 7 5 4 6 7 7 6 5 5 5 7 8 9 9 8 8 9
36 35 35 33 32 32 30 29 31 29 28 27 26 26 24 23 22 20 20 19 20 23 22 20 20 19 18 17 17 17 17 16 14 14 14 13 13 13 11 10 10 10 10 11 12 12 11 9 9 9 8 6 5 6 4 3 8 12 12 10 9 9 8 9 11 11 11 10 9 7 6 7 7 7 7 6 5 5 6 7 8 7 7 7 7
37 37 36 33 33 34 32 30 30 30 30 28 27 27 25 24 22 21 21 20 22 25 23 20 19 19 18 16 17 17 17 17 15 15 14 13 13 12 11 11 10 10 10 10 11 11 11 9 10 10 8 6 6 7 5 5 11 13 12 11 9 7 7 10 13 12 12 12 11 10 9 8 8 8 8 7 6 5 4 5 6 6 5 5 6
37 39 37 33 35 35 34 32 30 31 33 30 29 29 27 26 24 23 23 21 23 26 24 20 19 18 17 16 17 17 17 17 15 15 14 13 13 12 11 11 10 10 10 9 10 10 9 9 10 10 8 7 8 8 7 9 14 13 11 10 7 7 7 9 11 10 12 14 14 13 12 10 9 9 9 8 7 6 4 4 5 6 5 5 5
36 39 38 35 37 36 36 34 31 33 34 32 31 31 29 28 26 25 24 22 22 26 25 21 19 18 17 17 17 17 17 17 15 14 13 12 13 13 12 11 10 10 10 9 9 8 8 9 10 10 8 8 7 8 8 8 11 11 9 7 3 4 7 9 10 10 10 13 15 14 15 13 11 9 9 9 9 8 7 5 5 7 6 6 5
37 39 38 37 37 37 38 36 33 34 36 34 32 32 30 27 26 25 24 20 18 23 24 20 20 19 17 18 17 17 17 17 15 13 13 13 13 13 12 11 10 10 10 10 9 8 9 10 10 9 9 8 6 7 7 5 6 9 8 3 1 1 3 7 11 11 10 11 14 14 15 15 12 10 10 10 11 10 9 8 7 8 8 8 7
36 37 38 38 38 38 39 38 36 35 36 36 33 32 31 27 25 25 24 20 14 19 25 22 22 21 18 18 18 17 18 17 15 13 13 13 13 13 12 11 10 10 9 9 9 9 10 10 10 10 9 8 6 6 6 5 5 7 5 2 1 2 1 5 9 11 10 11 13 14 15 15 13 13 13 12 11 11 11 10 9 9 8 9 9
36 37 39 39 38 39 41 40 38 37 36 36 35 33 30 26 25 25 24 19 13 18 26 25 25 24 20 19 19 18 18 17 16 14 13 12 13 12 11 11 10 9 8 8 8 8 9 10 10 10 9 8 7 6 6 5 5 6 5 2 2 1 2 3 4 7 9 11 13 14 16 16 15 14 14 13 12 12 12 12 10 9 9 9 9
36 39 40 39 39 40 41 41 40 38 37 36 36 35 31 27 27 27 25 21 16 21 28 27 27 26 21 19 19 18 17 16 15 15 13 12 12 12 11 11 9 9 8 7 7 8 9 9 10 10 8 8 7 7 8 7 5 5 5 4 1 2 3 2 2 2 6 10 12 15 18 18 17 15 13 13 12 12 13 13 12 11 10 9 8
36 39 40 39 39 40 41 41 41 39 38 37 37 35 33 29 29 29 29 26 21 22 26 27 26 25 22 19 19 18 17 16 15 15 14 13 12 12 11 11 9 9 9 7 7 7 8 9 10 9 8 7 7 8 9 9 7 6 6 5 4 5 5 3 4 2 3 6 8 13 19 19 19 18 15 14 13 13 14 13 13 13 12 11 9
36 38 39 39 40 41 42 42 41 40 39 38 37 36 35 32 30 30 31 30 25 22 24 27 26 24 22 21 20 19 17 16 16 16 16 14 13 13 12 11 10 10 9 8 7 7 8 9 10 9 8 8 6 6 10 10 8 7 7 5 4 5 5 5 5 4 3 2 2 5 13 18 22 21 17 16 14 14 15 14 13 13 14 13 11
37 37 38 39 40 41 42 41 40 40 40 39 38 37 36 35 32 31 32 31 28 24 23 26 26 24 24 23 22 21 19 18 16 16 16 15 14 13 12 12 11 11 11 9 8 8 9 10 10 10 9 9 6 5 9 9 7 5 6 5 3 4 4 3 3 3 3 2 1 2 4 9 18 21 20 17 15 15 15 15 14 14 14 14 13
37 38 38 39 40 41 41 41 40 40 40 40 39 38 37 36 34 33 33 32 30 27 24 25 26 26 25 25 24 22 20 20 18 16 16 16 15 14 13 13 12 11 12 10 10 9 10 10 10 9 9 9 8 7 8 7 5 4 4 5 5 4 3 1 2 1 1 2 1 2 0 1 8 17 20 19 17 17 17 17 16 15 15 15 14
36 37 36 38 40 41 41 42 40 40 40 41 40 39 38 37 37 35 34 34 33 31 28 26 27 28 28 27 25 24 22 21 20 19 17 17 17 16 14 15 13 12 13 12 11 11 11 11 10 9 9 9 9 9 9 7 5 4 4 4 5 5 3 1 1 1 2 1 1 1 2 1 3 9 14 17 17 17 18 19 19 17 16 15 14
Wind_Direction
142 137 135 133 129 128 124 124 124 123 124 123 125 125 125 125 127 130 129 127 125 123 120 118 116 113 110 108 107 106 105 104 103 101 99 99 98 96 96 96 98 101 106 108 108 105 104 106 108 110 113 114 114 113 109 105 103 102 101 98 98 99 100 99 99 99 98 96 96 96 96 95 97 100 101 103 103 105 106 106 105 103 104 107 106
142 135 130 129 129 129 126 126 126 125 125 126 126 126 126 127 129 130 130 128 124 120 117 116 114 113 113 111 110 109 108 106 105 103 102 99 96 94 94 95 99 104 109 111 108 104 103 105 107 109 113 115 114 112 107 103 100 101 103 102 100 99 98 98 98 98 98 96 96 95 97 98 100 102 102 102 103 105 106 106 105 105 105 106 106
138 134 131 132 132 131 129 129 128 127 127 128 128 128 128 129 131 130 129 125 121 118 117 117 116 114 112 112 110 108 107 105 103 102 99 96 94 95 97 101 105 107 109 109 107 105 104 104 107 110 112 113 112 109 106 104 102 103 107 106 105 103 102 101 99 99 99 100 101 99 99 100 100 100 100 101 102 104 105 106 106 106 106 106 107
138 135 134 135 133 133 132 131 129 129 129 130 131 131 131 131 131 129 126 123 121 121 121 120 118 115 115 114 111 108 106 103 103 101 99 99 100 102 103 106 109 110 107 106 106 105 104 104 106 109 110 109 108 106 106 106 106 107 108 109 108 108 105 102 101 104 105 107 107 104 101 99 99 99 101 102 102 102 101 103 105 106 107 108 107
140 137 138 137 137 137 135 134 132 130 131 131 133 134 133 131 130 128 126 124 124 124 125 124 121 119 119 118 114 112 109 107 106 105 105 107 110 110 108 107 109 109 107 105 106 105 104 104 104 105 105 102 102 104 107 108 109 110 110 112 111 110 107 103 105 108 110 112 110 106 102 99 100 100 100 101 100 100 98 100 102 105 106 107 105
142 140 141 140 142 140 138 137 135 133 132 133 135 135 133 130 129 128 128 127 129 129 129 126 124 123 121 120 120 119 116 114 112 111 112 114 117 115 110 108 107 108 108 107 107 106 105 104 103 102 100 98 100 103 108 110 112 113 114 115 111 109 109 106 110 113 114 115 112 108 105 102 99 98 98 98 98 98 98 99 100 102 104 105 104
143 143 144 145 145 143 142 141 138 136 134 134 135 134 131 130 130 130 131 131 131 132 132 129 128 128 125 121 121 120 118 118 116 117 117 117 116 114 111 109 109 108 108 109 109 108 106 105 102 101 100 100 102 105 111 113 115 116 117 117 112 110 111 111 115 118 118 118 115 111 107 104 100 98 99 98 99 100 101 102 102 103 105 105 104
145 147 148 149 148 146 146 143 141 139 136 136 136 135 132 132 132 134 135 134 134 134 132 131 131 131 127 123 120 119 118 119 119 117 117 117 116 114 113 113 113 112 110 111 111 109 107 106 103 102 102 103 106 109 114 115 116 117 117 118 115 114 113 113 116 119 119 117 116 113 109 106 103 102 102 101 101 101 102 104 105 106 106 107 106
148 150 151 152 150 148 146 145 143 142 140 139 139 137 135 135 137 137 136 135 137 135 133 133 133 131 129 128 125 122 121 121 119 116 117 119 118 117 116 115 115 114 112 112 110 109 107 105 104 103 103 105 108 111 114 115 116 116 117 116 114 115 115 115 118 119 117 116 116 114 110 107 105 104 104 102 102 104 105 106 106 107 107 107 106
151 152 153 154 151 149 148 147 146 145 144 144 142 139 138 139 139 137 135 136 138 135 134 133 132 131 131 131 129 126 123 121 119 117 119 120 119 118 116 116 116 115 112 111 110 108 106 105 105 104 104 104 107 114 116 117 118 119 118 117 115 115 117 119 121 120 117 115 114 111 109 108 106 105 104 104 106 107 107 107 107 107 107 106 105
153 153 153 154 152 150 150 149 148 147 146 145 143 141 142 142 140 136 136 137 136 134 133 133 132 132 132 133 132 129 125 123 121 119 121 121 120 119 117 117 117 116 113 112 111 109 107 107 107 107 107 106 108 115 117 118 121 122 121 119 118 118 122 124 124 122 119 116 113 112 110 108 107 106 106 106 106 106 107 108 109 109 108 107 106
155 155 153 152 153 153 152 150 149 148 147 146 144 145 147 146 142 139 139 138 135 134 135 135 132 131 132 132 133 130 127 124 123 121 122 122 121 119 118 118 118 117 114 113 112 111 110 109 109 109 107 106 110 113 116 118 119 121 122 122 121 124 128 128 127 124 121 119 116 114 112 109 108 108 108 107 107 108 110 112 112 111 109 108 108
155 155 153 153 155 155 153 152 150 149 149 148 147 149 149 146 143 144 145 142 139 140 138 133 130 132 133 134 134 132 128 125 124 123 121 121 120 119 119 119 118 117 114 114 114 113 112 111 111 110 108 108 111 111 113 115 116 118 121 124 126 128 130 129 128 126 124 123 118 116 114 112 111 112 111 110 110 111 114 115 114 111 110 110 109
154 155 154 154 155 155 154 153 152 151 152 150 150 148 146 145 146 148 148 149 148 143 138 135 134 134 135 135 134 134 131 127 126 124 121 121 119 119 120 120 119 117 116 116 116 115 115 114 113 112 111 112 113 111 112 113 114 116 118 123 125 127 130 131 131 131 131 127 120 119 117 113 114 114 113 112 112 112 114 116 115 113 112 111 110
152 153 153 154 155 156 157 156 154 153 153 150 149 146 144 147 150 150 149 151 149 143 141 139 138 138 137 136 136 136 133 130 128 126 124 121 120 120 121 121 120 118 118 119 119 120 119 118 116 114 113 113 114 113 112 114 115 117 119 123 125 127 131 131 131 133 134 131 125 123 118 115 116 116 116 115 114 114 115 116 115 114 112 110 109
152 153 153 154 156 158 158 157 155 153 153 151 149 146 148 150 150 150 150 150 146 145 142 136 137 139 140 138 138 137 134 132 131 129 127 123 121 119 120 123 124 122 123 124 126 126 125 122 119 118 117 117 117 115 115 116 118 121 123 125 126 128 131 131 131 132 133 133 131 127 121 119 120 118 118 118 117 117 115 115 114 113 112 110 109
153 154 153 155 157 158 158 155 154 152 151 149 148 148 151 151 150 150 149 148 146 143 137 134 138 140 141 141 139 137 136 135 133 132 130 126 121 118 120 124 126 126 128 129 130 130 128 124 122 121 120 119 117 115 116 120 122 124 125 125 125 126 128 130 132 134 134 134 135 131 125 123 124 123 122 121 120 120 118 116 115 114 113 111 111
154 154 154 156 158 158 158 153 151 150 149 147 146 148 149 150 151 150 145 145 145 140 136 138 141 141 141 140 138 138 139 138 135 134 133 131 125 121 122 124 127 130 133 134 133 130 129 128 127 125 119 114 114 115 116 121 123 123 123 123 123 125 126 128 133 137 137 136 137 134 128 126 126 125 126 125 123 122 120 117 116 114 113 113 112
154 155 156 157 158 158 157 154 152 150 149 148 147 147 148 150 150 144 140 141 142 140 139 141 142 142 139 139 141 140 140 140 137 137 137 135 129 125 125 126 129 131 132 134 134 132 132 133 130 125 118 113 113 116 119 120 120 120 124 125 125 127 126 127 133 138 139 138 139 136 133 130 128 128 128 127 125 123 121 119 117 116 115 115 112
154 157 158 158 159 159 159 156 153 151 150 150 148 148 149 149 146 140 139 141 142 142 141 142 142 142 141 142 142 140 141 143 141 140 138 135 131 128 127 130 131 131 131 133 134 135 137 135 131 128 121 117 115 115 119 121 122 124 127 129 132 131 126 127 132 137 140 141 141 140 138 135 131 131 131 129 129 126 124 122 120 120 118 116 115
157 159 159 160 161 161 161 158 155 153 151 151 149 149 148 147 144 142 143 143 142 142 141 141 142 141 142 142 141 141 144 145 142 140 136 135 135 131 131 133 132 131 132 134 135 137 139 138 136 133 125 120 119 118 117 119 123 127 131 136 138 130 124 129 134 137 141 143 144 143 142 140 135 133 134 133 132 129 127 125 123 123 121 119 115
157 160 162 162 162 163 162 160 157 153 152 152 150 150 149 149 148 147 147 144 142 142 142 142 142 141 141 141 141 143 144 145 144 141 138 138 137 135 137 138 134 132 134 136 137 139 141 142 140 137 130 124 122 119 115 120 125 128 136 140 136 128 126 131 134 136 139 142 143 143 142 141 140 138 137 136 135 133 130 127 125 125 123 121 115
159 162 164 165 164 163 164 162 158 155 155 153 152 154 153 152 151 150 148 145 144 144 145 145 144 143 142 140 139 141 145 146 145 143 141 139 139 140 140 141 139 137 137 137 139 140 141 142 142 141 137 131 124 117 114 123 131 134 139 138 136 131 128 133 135 136 139 142 142 140 140 141 143 141 140 139 137 137 136 133 132 132 130 126 121
162 164 165 167 165 165 165 163 160 158 157 155 156 158 157 155 153 152 150 148 148 148 148 147 145 144 142 140 138 139 141 142 144 145 143 141 142 143 144 146 144 140 138 137 138 138 138 139 141 144 143 140 133 124 119 127 138 142 141 139 141 133 128 136 140 140 140 142 141 139 140 140 140 140 139 141 141 142 141 140 139 137 135 133 132
162 165 167 167 167 167 165 165 163 161 160 160 159 160 160 157 155 154 153 152 152 151 151 150 148 147 145 143 141 140 141 143 147 148 146 145 147 149 150 149 145 140 137 135 136 137 138 140 140 143 146 146 142 137 132 136 150 153 149 146 148 137 129 143 150 149 147 145 143 142 143 142 138 138 138 139 140 142 141 141 141 141 144 145 145
161 165 168 168 170 168 166 168 166 165 166 164 162 162 161 158 158 157 156 156 155 155 155 154 152 150 148 147 148 149 149 149 149 146 144 146 149 152 152 149 144 139 137 134 135 137 140 141 141 145 152 156 155 160 156 151 159 159 155 154 158 152 141 152 159 156 151 146 144 144 146 145 141 140 139 138 138 141 141 140 142 146 151 152 151
161 166 169 170 172 169 171 173 169 169 169 167 165 164 163 161 160 159 160 160 159 160 160 159 154 151 151 152 156 156 153 150 147 144 141 144 149 152 152 150 146 141 138 133 131 135 138 140 141 145 154 163 169 181 179 168 168 167 162 161 166 166 157 161 165 159 152 146 141 141 142 140 141 142 140 139 142 145 145 144 145 148 151 154 156
161 166 169 171 173 173 176 175 172 172 170 170 168 166 166 163 162 163 163 163 163 164 164 162 158 157 157 157 161 158 155 153 150 147 145 147 150 153 155 155 153 148 143 137 135 138 141 145 150 156 163 174 184 194 201 190 177 176 171 167 173 178 172 169 168 163 155 148 143 141 141 140 143 142 139 142 146 148 149 150 153 155 158 161 163
163 166 168 171 175 176 177 176 174 173 171 171 170 168 167 165 166 167 165 166 166 166 165 165 164 163 159 161 167 163 161 162 157 155 153 153 152 155 158 159 160 155 148 144 143 144 147 155 166 183 194 200 199 199 207 197 179 180 178 174 180 185 181 178 173 166 158 150 147 150 151 150 150 148 146 149 151 153 156 159 161 164 166 168 169
166 167 169 172 176 177 177 176 175 175 172 172 171 170 170 169 171 170 169 170 169 167 167 168 166 164 161 164 173 172 168 169 167 165 164 163 161 160 159 159 160 155 151 148 146 150 149 148 165 191 197 198 195 193 195 190 179 178 180 180 182 184 184 184 177 168 160 154 152 157 163 161 159 159 158 157 158 161 161 159 160 162 166 169 171
167 168 171 173 175 178 177 177 178 177 175 173 172 171 173 174 174 174 174 173 170 170 170 170 169 167 167 170 176 178 176 174 173 172 171 170 167 164 161 161 160 154 152 152 153 155 149 145 158 176 188 187 186 188 183 177 176 176 180 182 181 181 183 185 182 174 167 165 162 163 168 170 171 171 169 168 167 170 169 163 160 159 163 168 171
169 171 173 173 175 178 178 179 180 180 178 174 173 174 177 179 179 179 180 178 175 175 174 175 176 176 175 176 179 181 178 175 172 169 165 163 162 160 161 163 161 156 151 150 154 157 155 162 168 172 181 180 181 191 189 178 172 172 178 182 181 180 180 180 182 181 177 175 175 174 175 178 181 182 183 183 182 185 186 181 178 178 179 184 189
172 174 173 173 175 178 181 182 181 181 180 177 176 179 183 186 186 185 185 184 182 180 178 178 181 181 179 179 181 181 176 172 167 164 160 157 158 158 159 162 164 162 154 150 152 157 168 177 184 183 171 163 149 162 189 189 176 171 174 181 184 183 181 182 181 181 182 181 180 181 181 184 186 190 194 196 199 202 202 203 207 210 212 212 217
172 174 174 175 176 178 182 184 182 183 183 181 180 183 187 189 189 187 186 187 185 183 180 179 182 182 182 183 182 179 174 169 165 163 160 158 160 161 161 160 165 167 163 163 159 161 177 183 185 181 167 163 133 112 172 187 180 176 176 179 185 188 190 189 187 185 180 179 181 182 184 188 191 194 199 203 207 210 212 216 221 226 229 230 233
171 173 176 177 176 179 183 183 183 185 185 184 184 186 188 188 189 189 190 188 184 183 181 180 181 180 181 185 185 180 174 170 167 166 166 166 167 169 167 162 163 166 170 176 176 175 181 182 180 175 167 162 135 94 145 179 180 178 179 178 180 186 193 196 197 195 185 181 182 182 183 187 191 193 201 209 212 213 214 218 224 229 233 234 237
172 174 176 176 176 181 183 183 184 184 185 187 187 187 186 188 191 193 196 193 185 185 184 181 179 177 180 185 185 181 176 169 168 172 173 172 172 173 172 166 164 167 171 174 179 181 177 176 174 170 171 159 145 107 117 168 180 179 177 176 176 178 187 197 202 198 193 189 185 185 187 186 186 187 194 208 216 219 219 222 226 230 235 237 238
173 174 177 175 176 180 182 183 183 183 187 188 186 185 186 189 190 194 196 192 188 190 187 181 176 176 180 183 184 184 179 170 170 177 178 176 175 175 174 170 166 165 165 165 169 171 164 167 170 168 173 166 163 140 109 141 171 178 173 169 177 183 187 196 200 199 200 199 193 191 191 184 182 185 190 201 213 222 224 226 231 234 239 241 241
173 175 178 176 176 178 179 182 182 184 187 184 182 182 186 189 189 189 186 185 191 191 185 181 178 177 179 181 183 183 180 177 177 182 183 180 178 180 179 172 167 162 161 160 160 163 160 159 165 170 179 178 172 159 129 131 164 176 174 168 178 185 189 197 200 204 206 207 202 194 196 190 182 184 190 197 208 223 227 226 232 237 242 246 247
172 175 178 177 177 177 178 182 184 186 187 183 182 182 185 188 188 186 179 180 189 186 183 184 183 181 181 182 184 180 180 183 184 186 185 178 179 182 177 167 163 161 163 162 159 160 159 155 161 170 176 175 163 153 145 178 186 180 176 173 172 175 186 200 205 213 215 216 211 200 206 204 192 190 195 199 210 226 234 230 231 236 244 249 250
172 174 177 179 179 177 178 182 185 186 184 184 184 183 185 187 189 190 185 184 187 184 184 187 187 188 187 185 184 182 183 186 188 190 188 181 181 179 170 161 159 162 164 164 165 163 158 156 160 166 170 158 146 147 132 150 173 171 172 175 173 176 188 195 200 215 224 225 222 213 212 211 203 203 203 203 214 228 232 227 224 226 238 248 247
172 173 176 178 178 178 179 181 184 183 181 183 183 183 186 187 191 195 191 190 189 186 185 186 188 189 191 189 186 187 187 188 189 189 189 187 183 176 168 163 158 161 164 165 170 166 159 162 161 164 169 151 135 142 136 132 143 152 166 173 175 185 191 193 202 221 230 227 227 223 217 215 212 212 212 209 214 225 218 208 213 220 231 239 239
172 174 176 177 177 178 179 181 184 182 181 183 182 185 188 188 192 194 192 191 190 189 187 186 188 187 189 190 188 191 188 186 188 187 188 189 184 176 170 168 162 162 168 172 177 167 159 162 161 165 167 156 138 140 149 144 141 150 159 161 169 198 205 215 227 240 241 227 221 222 218 217 218 215 216 217 218 223 222 218 221 229 234 235 239
173 175 176 176 176 178 180 182 184 183 183 184 184 187 189 188 191 191 190 190 190 195 194 190 191 190 190 191 190 192 189 187 188 187 187 187 184 179 172 172 168 168 175 178 178 172 166 163 160 162 162 158 150 148 163 168 159 157 148 141 190 207 237 248 246 246 250 232 216 215 215 216 220 217 216 221 221 221 223 228 233 238 243 242 244
174 176 176 176 176 178 180 181 184 184 184 186 187 188 189 190 190 189 192 194 189 194 196 195 197 195 192 192 191 191 191 192 191 187 187 188 188 184 178 177 174 174 180 177 175 174 172 170 166 165 164 163 163 164 176 176 164 162 144 116 140 106 271 264 251 246 252 240 218 212 212 215 218 217 218 224 225 224 226 232 238 242 250 253 252
175 176 177 177 177 179 180 181 184 185 185 187 189 189 190 190 189 189 195 197 186 183 187 190 195 196 193 193 193 192 193 194 192 189 189 189 189 189 185 182 179 182 183 177 175 174 174 176 174 171 169 172 178 181 187 178 163 167 164 142 97 111 234 240 242 246 245 234 223 218 216 216 216 217 221 226 229 230 231 238 243 243 252 258 258
177 178 179 179 180 180 181 182 184 185 186 188 189 190 191 188 186 189 195 197 187 179 181 184 190 192 193 195 194 194 196 195 194 193 194 193 189 189 189 184 182 185 186 184 183 180 177 178 178 174 171 176 188 197 200 192 172 170 183 194 213 248 248 190 153 243 244 232 233 230 223 220 218 221 225 227 233 234 235 244 248 249 254 260 264
178 179 180 180 181 181 181 182 184 186 187 188 189 191 191 188 186 190 195 197 193 184 184 187 189 191 193 195 194 196 199 198 198 197 197 199 194 192 194 191 189 188 189 189 187 184 180 180 180 178 175 177 191 207 205 198 190 189 201 223 263 271 269 236 183 169 230 233 242 230 223 222 218 221 225 226 234 238 237 244 250 254 258 262 267
177 178 180 181 182 182 182 183 184 186 188 188 190 190 190 188 189 193 195 197 196 189 187 189 190 191 192 194 193 194 199 198 200 201 199 201 201 199 199 200 201 198 198 197 190 186 183 183 182 181 187 185 186 202 198 194 198 200 203 220 274 266 253 240 203 173 153 190 268 223 220 223 219 220 225 227 236 239 237 242 248 254 255 258 265
178 178 180 182 183 183 182 183 184 186 188 189 190 191 191 190 189 194 196 196 197 193 188 189 191 192 192 194 193 193 197 196 197 201 200 201 204 204 204 207 211 208 205 201 195 194 190 188 185 183 189 189 181 186 189 188 189 183 188 204 233 228 225 229 185 158 122 134 229 243 223 222 221 223 225 230 238 238 239 245 249 253 252 253 259
180 180 180 181 182 182 182 184 185 186 188 189 191 192 193 192 191 194 196 195 196 196 192 188 191 194 194 195 196 194 196 197 198 202 204 205 208 209 207 208 213 213 209 205 202 204 202 199 195 186 189 196 192 187 187 187 179 170 180 199 208 206 215 222 158 153 55 107 162 257 334 152 223 231 230 233 240 239 240 246 249 251 251 252 257
181 180 180 181 181 182 183 184 186 187 188 189 191 193 194 194 194 196 196 195 195 197 195 189 189 194 195 196 197 197 198 198 201 205 208 212 213 214 213 210 211 214 215 214 212 211 210 207 203 195 197 203 200 193 192 189 179 178 197 208 207 205 204 184 173 236 259 163 120 279 302 357 258 244 235 234 239 240 240 243 248 250 252 256 260
Height
818 818 820 821 823 822 823 823 824 824 825 826 826 827 827 828 828 829 829 830 830 831 832 832 833 832 833 833 833 833 833 833 833 833 832 832 832 833 834 834 834 834 833 833 834 834 835 835 835 836 836 836 836 837 836 836 836 836 836 836 837 838 838 839 839 839 839 839 839 838 838 838 838 839 839 839 839 839 839 840 840 840 840 841 841
817 819 820 821 823 823 824 824 825 826 826 827 827 828 828 829 829 830 830 831 831 832 833 833 833 834 834 834 834 834 834 834 834 833 833 833 833 834 834 835 834 834 834 834 834 835 835 836 836 836 836 837 837 837 837 837 837 837 837 838 838 839 839 840 840 840 840 840 840 840 840 840 840 840 840 840 840 840 841 841 841 841 842 842 842
817 819 820 822 823 823 824 825 826 827 828 828 828 829 829 830 830 831 831 832 832 833 834 834 835 835 835 835 835 835 835 835 834 834 834 834 834 835 835 836 835 835 835 835 835 836 836 836 837 837 837 837 837 838 838 838 838 838 838 839 839 840 840 841 841 841 841 841 841 841 841 841 841 841 841 841 841 842 842 842 842 842 843 843 843
817 819 821 822 823 824 825 826 827 827 828 828 829 830 830 831 831 832 833 833 834 834 835 835 836 836 836 836 836 836 836 835 835 835 835 835 835 836 836 836 836 836 835 836 836 836 837 837 837 837 837 838 838 838 838 838 838 839 839 840 840 841 842 841 842 842 842 842 842 842 842 842 843 843 843 843 843 843 843 843 843 844 844 844 845
818 820 821 822 824 825 826 827 828 828 829 829 830 831 831 832 833 833 834 835 835 836 836 837 837 837 837 837 838 837 837 837 836 837 837 837 837 837 837 837 837 836 836 837 837 837 837 837 837 838 838 838 839 839 839 839 840 840 841 842 842 842 842 843 843 844 844 844 843 843 843 844 844 844 844 844 844 845 845 845 845 845 845 846 846
819 820 822 823 824 825 826 827 828 829 830 830 831 831 832 833 834 834 835 836 836 837 838 838 838 838 839 839 839 839 838 838 838 839 838 838 838 838 838 838 838 838 838 838 838 838 838 838 838 838 839 839 839 840 840 840 841 841 842 843 843 843 844 844 845 845 845 845 845 844 844 845 845 845 846 846 846 846 846 847 847 847 847 847 847
819 821 823 823 825 826 827 828 829 830 830 831 832 833 833 834 835 835 836 837 837 838 839 839 839 840 840 840 840 840 840 840 840 840 839 839 839 839 839 839 839 839 839 839 839 839 839 839 839 840 840 840 840 841 841 841 842 842 843 844 844 845 845 846 846 846 846 846 846 846 846 846 846 846 847 847 847 848 848 849 849 849 849 849 849
820 821 823 824 825 826 827 828 829 830 831 832 832 834 835 835 836 836 837 838 839 839 840 840 840 841 841 841 841 841 841 841 841 840 840 840 840 840 840 840 840 840 840 840 840 840 841 841 841 841 841 841 841 842 842 842 843 844 844 845 845 846 846 847 847 847 847 847 847 847 847 847 847 847 848 849 849 849 850 850 850 851 850 850 850
821 822 823 824 825 827 828 829 830 831 831 833 833 835 835 836 836 837 838 839 840 840 841 841 841 842 842 842 842 842 842 842 841 841 841 841 841 841 841 842 841 841 841 841 841 842 842 842 842 842 843 842 842 843 843 843 844 845 845 846 846 847 847 847 848 848 848 848 848 848 848 848 849 849 850 850 850 851 851 851 852 852 852 852 852
821 822 824 825 826 827 828 829 830 832 832 833 834 835 836 837 837 838 839 840 841 841 842 842 842 842 843 843 843 843 843 842 842 842 842 842 842 842 843 843 843 842 842 843 843 843 843 843 844 844 844 844 844 844 844 845 845 846 846 847 847 848 848 848 848 848 849 849 850 850 850 850 850 851 851 851 852 852 852 853 853 853 853 853 853
821 823 824 825 827 828 829 831 831 832 833 834 835 836 837 837 838 839 840 841 842 842 842 843 843 843 843 844 844 844 843 843 843 843 843 843 843 843 844 844 844 844 843 844 844 844 845 845 845 846 846 845 846 846 846 846 846 847 847 848 848 849 849 849 849 849 850 850 851 851 851 852 852 852 853 853 853 853 854 854 854 854 855 854 854
822 824 825 826 827 829 830 831 832 833 834 835 836 837 838 838 839 840 841 842 842 843 843 844 844 844 844 844 845 844 844 844 844 844 844 844 845 844 845 845 845 845 845 845 845 846 846 846 847 847 847 847 847 847 847 847 848 848 848 849 849 850 850 850 850 851 851 852 852 852 853 853 853 854 854 854 854 855 855 855 856 855 856 856 856
822 824 825 827 828 830 831 832 833 834 835 836 837 838 839 839 840 841 842 843 843 844 844 844 844 845 845 845 845 845 845 845 845 845 845 845 845 845 845 846 846 846 846 846 846 847 847 848 848 848 848 848 848 848 848 849 849 849 849 850 850 851 851 852 852 852 853 853 853 854 854 854 855 855 855 855 856 856 856 856 857 857 857 857 857
822 824 826 828 829 831 831 833 834 835 836 837 838 839 839 840 841 842 843 843 844 844 844 845 845 846 846 846 846 846 846 845 846 846 846 846 846 846 846 847 847 847 847 847 847 848 848 849 849 849 850 850 850 850 850 850 850 851 851 851 852 852 852 853 853 853 854 854 854 855 855 855 856 856 856 857 857 857 857 857 858 858 858 858 859
823 824 827 828 829 831 832 834 835 836 837 837 839 839 840 841 842 843 843 844 844 845 845 846 846 846 846 846 847 846 847 846 846 847 847 847 847 847 847 848 848 848 848 848 848 849 849 850 850 850 851 851 851 851 851 852 852 852 852 852 853 853 854 854 854 854 855 855 856 856 856 857 857 857 857 858 858 858 858 858 859 859 859 860 860
824 825 827 828 830 831 833 834 835 836 837 838 839 840 841 842 843 843 844 844 845 846 846 846 847 847 847 847 847 847 848 847 847 847 848 848 848 848 848 848 849 849 849 849 849 850 851 851 851 852 852 852 852 853 853 853 853 853 853 854 854 854 855 854 855 855 856 856 857 857 857 858 858 858 859 859 859 859 860 860 860 860 861 861 862
826 827 828 829 830 831 833 835 836 837 838 839 840 841 842 842 843 844 844 845 846 846 846 847 847 848 848 848 848 848 848 848 848 848 849 849 849 849 848 849 849 850 850 850 850 851 852 852 852 853 853 853 853 854 854 854 854 854 855 855 855 855 856 855 856 856 857 857 858 858 858 859 859 859 860 860 860 861 861 861 861 862 862 862 863
827 828 829 829 830 832 833 835 836 837 838 839 841 842 842 843 844 844 845 846 846 847 847 848 848 848 849 849 849 849 849 849 849 849 849 850 850 850 850 850 851 851 851 851 851 852 853 853 854 854 854 855 855 855 855 855 855 856 856 856 856 857 856 856 857 857 857 858 859 859 859 860 860 860 861 861 861 862 862 862 862 863 863 863 864
828 829 829 830 831 832 833 835 837 837 839 840 841 842 843 844 844 845 845 846 847 848 848 848 848 849 849 850 850 850 850 850 850 851 851 851 851 851 851 851 852 852 852 852 853 853 854 854 855 855 855 856 856 856 856 856 856 857 857 857 858 858 858 858 858 858 858 859 859 860 860 860 861 861 862 862 863 863 863 863 863 864 864 864 864
829 830 830 831 831 833 833 836 837 838 839 840 842 842 844 844 845 846 846 847 848 848 849 849 849 850 850 850 851 851 851 851 851 852 852 852 852 852 852 852 853 853 853 854 854 854 854 855 855 856 856 856 857 857 858 858 858 858 858 858 859 859 859 859 859 859 859 860 860 861 861 861 862 862 863 863 863 864 864 864 864 865 865 865 865
830 831 831 832 832 833 834 836 837 839 840 840 842 843 844 845 846 847 847 848 848 849 849 850 851 851 851 851 851 852 852 852 852 853 853 853 853 853 854 854 854 854 855 855 855 855 855 855 856 857 857 857 858 859 859 859 859 859 859 859 859 859 859 860 860 860 860 860 861 861 862 862 863 863 864 864 864 865 865 865 865 865 866 866 866
829 831 832 832 833 834 835 836 837 839 840 841 842 843 844 845 846 847 848 849 849 850 850 850 851 851 852 852 852 853 853 853 853 853 853 854 854 854 854 855 855 855 856 856 856 856 856 856 856 857 858 859 859 859 860 860 860 860 860 860 860 860 860 860 860 861 861 861 862 862 863 863 863 864 864 865 865 865 866 866 866 866 867 867 867
828 830 831 832 833 834 835 836 837 839 840 841 842 843 845 846 847 848 849 850 850 851 851 851 852 852 853 853 853 853 854 854 854 854 854 854 855 855 855 855 856 856 857 857 857 857 857 857 857 858 858 859 860 860 861 861 861 861 861 862 861 861 861 861 862 862 862 862 863 863 863 864 864 865 865 865 866 866 866 866 867 867 867 867 867
828 829 830 832 833 834 835 837 838 839 840 841 843 844 845 846 848 849 850 850 851 851 852 852 853 853 854 854 854 854 855 855 855 855 855 855 855 855 855 856 856 857 857 858 858 858 858 858 858 858 859 859 860 861 861 862 862 862 862 863 862 862 862 862 863 863 863 863 863 864 864 865 865 865 866 866 866 867 867 867 867 867 868 868 868
827 829 830 832 833 834 836 837 838 839 841 842 843 844 846 847 848 849 850 851 852 852 853 853 853 854 854 855 855 855 856 855 856 856 856 856 856 856 855 856 857 857 858 858 858 859 859 859 859 859 860 860 860 861 862 862 863 863 863 863 863 863 863 863 864 864 864 864 864 865 865 865 866 866 867 867 867 867 867 868 868 868 868 868 868
826 829 830 832 833 835 836 837 839 840 841 842 843 845 846 847 848 850 851 852 852 853 853 854 854 855 855 856 856 856 856 856 857 857 857 857 856 856 856 856 857 857 858 859 859 860 860 860 860 860 861 861 861 862 862 863 863 863 864 864 864 864 864 864 864 865 865 865 865 865 866 866 866 867 867 868 868 868 868 868 868 868 868 868 868
826 828 830 832 833 835 836 837 839 840 841 842 843 845 846 847 849 850 851 852 853 853 854 854 855 855 856 856 856 857 857 857 857 857 857 857 857 857 857 857 857 858 859 859 860 860 861 861 861 861 861 862 862 862 863 863 864 864 864 864 864 864 864 865 865 865 865 866 866 866 867 867 867 868 868 868 868 868 868 868 868 868 868 868 868
826 828 830 831 833 834 836 837 839 840 841 842 844 845 846 848 849 850 851 852 853 853 854 854 855 856 856 857 857 857 857 858 858 858 858 858 858 858 858 858 858 859 859 859 860 860 861 861 861 861 862 862 862 863 863 863 864 864 865 865 864 864 865 865 866 866 866 866 867 867 867 868 868 868 868 868 868 868 868 868 868 868 868 868 868
825 827 829 831 833 834 836 837 839 840 841 842 844 845 846 847 849 850 851 852 853 854 855 855 856 856 857 857 858 858 858 858 858 858 858 859 859 859 859 859 859 859 859 860 860 861 861 861 862 862 862 862 862 862 863 863 864 864 865 865 865 864 865 865 866 866 866 867 867 867 868 868 868 869 869 869 869 869 869 868 868 868 868 868 868
824 826 828 830 832 834 835 837 838 839 841 842 844 845 846 847 848 849 851 852 853 854 855 855 856 857 857 857 858 858 858 858 858 858 859 859 859 860 860 860 860 860 860 860 860 861 861 862 862 861 861 861 862 862 863 863 864 864 864 865 865 864 865 865 866 866 866 867 867 868 868 868 869 869 869 869 869 869 869 868 868 868 868 868 868
824 826 827 829 832 833 835 837 838 839 840 842 843 845 846 847 848 849 851 851 853 854 855 856 856 857 857 858 858 859 859 859 859 859 859 860 860 860 860 860 861 860 860 860 861 861 862 862 862 861 861 861 862 862 862 863 863 864 864 864 865 865 865 866 866 867 867 867 867 868 868 869 869 869 869 869 869 869 869 869 868 868 868 868 868
823 824 826 829 831 833 835 837 838 839 841 842 843 845 846 847 848 849 850 851 853 853 854 856 856 857 857 858 858 859 859 859 859 859 859 860 860 860 860 861 861 861 861 861 861 861 862 862 862 862 862 862 862 862 863 863 863 864 864 865 865 865 866 866 867 867 867 867 868 868 868 869 869 869 869 869 869 869 869 869 869 868 868 868 867
822 824 826 828 830 832 834 836 838 839 840 841 843 844 845 847 848 849 850 851 852 853 854 855 856 857 857 858 859 859 859 860 860 860 860 860 860 860 860 861 861 862 862 862 862 862 862 862 862 862 862 862 862 862 862 863 863 863 864 865 865 865 866 867 867 867 868 868 868 868 868 869 869 869 869 869 869 869 869 869 868 868 868 868 867
821 823 826 827 830 832 834 836 837 839 840 841 842 844 845 847 848 849 850 851 852 853 854 855 856 856 857 858 859 859 860 860 860 860 861 861 861 861 861 861 861 862 862 862 862 862 862 862 861 861 861 861 861 862 862 862 863 864 864 865 865 866 866 867 867 868 868 868 868 868 868 869 869 869 869 869 869 869 869 868 868 868 868 867 867
820 822 824 826 829 831 833 835 836 838 839 841 842 843 845 846 848 848 850 851 852 853 854 855 855 856 857 858 858 859 860 860 860 861 861 861 861 861 861 861 861 862 862 862 862 862 862 862 861 861 861 861 861 861 861 862 863 863 864 865 865 866 866 867 867 868 868 868 868 868 868 869 869 869 869 868 868 868 868 868 868 868 867 867 868
818 821 823 826 829 830 832 834 835 837 839 840 842 843 845 846 847 848 849 851 852 853 854 854 855 856 857 857 858 859 860 860 860 861 861 861 861 861 861 861 861 862 862 862 862 862 862 862 861 861 861 861 861 862 862 862 863 863 864 865 865 866 867 867 867 868 868 868 868 868 868 869 868 869 868 868 868 868 868 867 867 867 867 868 868
817 820 822 824 827 829 831 833 835 836 838 840 841 843 845 846 847 848 849 850 851 852 853 854 855 855 856 857 858 858 859 859 860 860 861 861 861 861 861 862 862 862 862 862 862 862 862 861 861 861 861 862 862 862 863 863 864 864 865 865 866 866 867 867 867 868 868 868 869 869 869 868 868 868 868 868 868 868 868 867 867 867 867 868 868
815 818 821 823 825 828 830 832 834 836 837 839 841 843 844 845 847 848 849 850 851 852 853 854 854 855 856 857 857 858 859 859 860 860 861 861 861 861 861 862 862 862 862 862 862 862 862 862 862 862 862 862 862 862 863 864 865 865 865 866 866 867 867 867 867 868 868 868 868 869 869 869 868 868 868 868 868 867 867 867 867 867 868 868 868
814 817 820 823 825 827 829 831 833 835 837 838 840 842 844 845 846 848 849 850 851 852 852 853 854 855 855 856 857 858 858 859 860 860 860 861 861 861 862 862 862 862 862 862 862 862 862 862 862 862 863 863 863 863 863 864 864 865 866 867 867 867 867 867 868 868 868 868 868 869 869 869 868 868 868 868 868 868 867 867 867 868 868 868 868
812 815 819 822 823 826 828 830 832 834 836 838 840 842 843 844 845 847 848 849 850 851 852 853 853 854 855 856 857 857 858 859 859 860 860 860 861 861 861 862 862 862 862 862 862 862 862 862 862 863 863 863 864 864 864 864 864 865 866 867 867 868 867 867 868 868 868 868 868 869 869 869 868 868 868 868 868 868 867 868 868 868 868 867 867
810 813 816 819 821 823 826 828 830 833 834 836 838 840 841 842 843 845 846 848 850 850 851 852 852 853 854 855 856 857 857 858 859 859 859 860 860 860 861 861 862 862 862 862 862 862 862 863 863 863 863 864 864 864 865 865 864 866 867 868 868 867 868 868 868 868 868 868 868 868 868 868 868 868 867 867 868 868 868 867 867 867 867 867 867
808 811 813 817 820 822 824 826 829 831 833 834 836 838 839 841 842 843 845 847 848 849 850 851 852 853 854 854 855 856 857 858 858 858 859 859 859 860 860 861 861 862 862 862 863 863 863 863 863 863 863 864 865 865 865 865 866 866 867 868 868 868 868 867 868 868 867 868 868 867 868 867 867 867 867 867 867 868 868 867 867 867 866 866 866
805 809 811 814 817 820 822 824 827 829 831 833 835 836 838 840 841 842 844 846 848 849 850 851 852 852 853 854 855 856 856 857 858 858 858 859 859 860 860 861 861 861 862 862 862 863 863 863 863 863 863 864 865 865 865 866 866 867 867 869 869 869 869 868 866 867 867 868 868 867 867 867 867 867 867 867 867 867 867 867 866 866 866 866 866
804 806 809 812 814 817 819 822 825 827 830 832 834 836 837 839 841 843 844 846 847 848 849 851 851 852 853 854 854 855 856 857 857 858 858 859 859 860 860 861 861 862 862 862 862 862 863 863 863 863 863 864 864 865 865 866 866 867 868 870 870 871 873 869 866 866 867 867 867 867 867 866 866 867 867 866 866 866 866 866 866 866 866 865 865
801 803 806 809 811 814 817 819 822 825 828 830 833 835 837 839 841 842 844 845 846 847 848 849 850 851 852 853 854 854 855 856 857 858 858 859 859 860 860 861 861 862 862 862 863 862 862 863 863 863 864 864 864 865 865 865 866 866 867 869 870 873 873 868 866 867 866 866 867 866 866 866 866 866 866 866 866 866 866 866 866 866 865 865 865
797 800 803 806 809 812 814 817 820 823 826 829 832 834 835 837 838 840 841 843 844 845 846 847 848 850 851 852 853 854 855 856 857 857 858 859 859 860 860 861 861 862 862 862 863 862 862 862 863 863 864 864 864 864 865 865 866 866 866 867 868 870 868 866 868 869 866 865 865 865 865 865 866 866 865 865 865 865 866 866 866 865 865 865 864
794 798 801 804 807 810 812 815 818 821 824 827 830 832 833 835 836 838 839 840 842 843 844 846 847 849 850 851 852 853 854 856 856 857 858 858 859 859 860 860 861 861 862 862 862 862 862 863 863 863 863 864 864 864 865 865 866 866 866 866 865 865 865 865 867 869 869 867 864 864 864 864 865 865 865 865 865 865 865 865 865 865 864 864 864
792 796 799 802 805 807 810 813 816 819 822 825 828 830 831 833 835 836 837 839 840 842 843 845 847 848 850 850 851 853 854 855 856 857 858 858 859 859 860 860 861 861 861 862 862 862 862 863 863 863 863 863 864 864 865 865 865 866 866 866 865 864 864 864 864 866 868 868 866 864 864 864 865 865 864 864 864 864 865 864 864 864 864 864 864
790 793 796 799 802 805 808 811 814 817 819 823 825 828 830 831 833 834 836 837 839 841 843 844 846 848 849 850 851 852 853 854 856 856 857 858 858 859 859 860 860 861 861 861 862 862 862 862 862 863 863 863 864 864 864 865 865 865 865 865 865 864 864 864 864 864 864 867 868 865 864 864 864 864 864 864 864 864 864 863 863 863 863 863 863
787 791 794 797 800 803 806 809 811 814 817 820 823 825 828 829 831 832 834 836 838 840 842 843 845 846 848 849 850 851 852 853 854 855 856 857 857 858 859 859 860 860 861 861 861 861 862 862 862 862 862 863 863 864 864 865 865 865 865 865 864 864 864 864 864 864 863 864 866 864 863 864 864 863 863 863 863 863 863 862 862 862 862 862 862
786 789 792 795 798 801 803 806 809 812 815 817 820 823 826 827 829 830 832 834 836 838 840 841 843 845 846 848 849 850 851 852 853 854 855 856 856 857 858 859 859 860 860 860 861 861 861 861 861 862 862 862 863 863 864 864 864 864 864 864 864 864 864 864 863 864 863 863 864 863 863 863 863 863 862 862 862 862 862 862 862 862 861 861 861